Location: ActonStarParty
(42.4766°N, 71.4538°W)
Time: 09:31:03
(UTC-05:00)

ATLAS 5 CENTAUR R/B - Visible Passes

Search period start: 05 December 2016 00:00
Search period end: 15 December 2016 00:00
Orbit: 236 x 14673 km, 60.8° (Epoch: 07 August)

Date Brightness Start Highest point End Pass type
(mag) Time Alt. Az. Time Alt. Az. Time Alt. Az.
05 Dec 8.2 16:45:02 10° W 17:44:54 64° N 19:21:32 37° E visible
05 Dec 8.1 21:49:03 10° NW 23:46:49 67° W 23:50:10 67° WSW visible
06 Dec 8.8 03:29:22 10° NW 03:43:53 11° NW 03:58:05 10° NW visible
06 Dec 8.2 15:00:41 10° WSW 15:33:53 74° NW 17:44:41 17° ENE visible
06 Dec 8.0 19:56:56 10° NW 22:00:54 89° ENE 22:13:16 80° SSE visible
07 Dec 8.5 01:11:42 10° NNW 02:21:33 26° WNW 02:41:54 24° WNW visible
07 Dec 8.0 18:06:29 10° WNW 19:53:49 69° NE 20:36:23 57° E visible
07 Dec 8.3 23:15:26 10° NW 00:55:02 45° WNW 01:05:02 45° W visible
08 Dec 8.2 16:18:54 10° W 17:15:10 64° N 18:59:34 33° E visible
08 Dec 8.0 21:22:09 10° NW 23:20:37 69° W 23:28:13 68° WSW visible
09 Dec 8.7 02:55:43 10° NW 03:19:07 12° NW 03:41:42 10° WNW visible
09 Dec 8.1 14:34:38 10° SW 15:06:30 75° NW 17:22:51 13° ENE visible
09 Dec 7.9 19:30:02 10° WNW 21:33:19 87° ENE 21:51:25 75° SE visible
10 Dec 8.5 00:43:50 10° NNW 01:56:21 27° WNW 02:20:05 24° WNW visible
10 Dec 8.0 17:39:40 10° WNW 19:23:22 68° NNE 20:14:40 52° E visible
10 Dec 8.2 22:47:52 10° NW 00:29:12 47° W 00:43:20 46° W visible
11 Dec 8.2 15:52:12 10° W 16:44:56 64° NNW 18:37:59 28° E visible
11 Dec 7.9 20:54:37 10° NW 22:53:46 71° W 23:06:38 68° SW visible
12 Dec 8.7 02:23:37 10° NW 02:53:52 13° NW 03:22:38 10° WNW visible
12 Dec 8.1 14:08:02 10° SW 14:38:33 77° NW 16:58:54 10° ENE visible
12 Dec 7.8 19:02:32 10° WNW 21:04:57 85° ENE 21:29:58 69° SE visible
13 Dec 8.4 00:15:22 10° NNW 01:30:39 29° WNW 01:58:40 25° W visible
13 Dec 7.9 17:12:15 10° WNW 18:51:40 67° NNE 19:53:20 46° ESE visible
13 Dec 8.1 22:19:42 10° NW 00:02:48 49° W 00:22:03 46° WSW visible
14 Dec 8.2 15:24:55 10° WSW 16:14:16 65° NNW 18:16:51 23° E visible
14 Dec 7.8 20:26:29 10° NW 22:26:15 73° W 22:45:29 66° SW visible
